Overview Statistics Trail Chart Weather Telemetry Raw packets
 

This is the latest recevied weather packets stored in our database for station/object WW6Q. If no packets are shown the sender has not sent any weather packets the latest 10 day(s).

<< 79 80 81 82 83 84 85 >>
Time Temp. Humidity Pressure Rain* Wind** Luminosity Snow
1788050857 20.56° C 83% 1018.5 hPa 0 mm - 0 W/m² -
1788050552 20.56° C 83% 1018.6 hPa 0 mm - 0 W/m² -
1788050246 20.56° C 84% 1018.4 hPa 0 mm - 0 W/m² -
1788049941 20.56° C 81% 1018.3 hPa 0 mm - 0 W/m² -
1788049639 20.56° C 81% 1018.4 hPa 0 mm - 1 W/m² -
1788049335 21.11° C 82% 1018.5 hPa 0 mm - 1 W/m² -
1788049035 21.67° C 79% 1018.2 hPa 0 mm - 2 W/m² -
1788048731 21.67° C 77% 1018.5 hPa 0 mm - 3 W/m² -
1788048429 22.22° C 75% 1018.7 hPa 0 mm - 7 W/m² -
1788048128 22.22° C 76% 1018.5 hPa 0 mm - 10 W/m² -
1788047826 22.22° C 74% 1018.5 hPa 0 mm - 11 W/m² -
1788047520 22.22° C 75% 1018.5 hPa 0 mm - 16 W/m² -
1788047215 22.78° C 75% 1018.7 hPa 0 mm - 21 W/m² -
1788046915 22.78° C 69% 1018.9 hPa 0 mm - 22 W/m² -
1788046614 22.78° C 70% 1018.8 hPa 0 mm - 19 W/m² -
1788046309 22.78° C 70% 1018.6 hPa 0 mm - 17 W/m² -
1788046007 22.78° C 68% 1018.8 hPa 0 mm - 13 W/m² -
1788045702 22.78° C 69% 1018.9 hPa 0 mm - 12 W/m² -
1788045397 22.78° C 67% 1018.9 hPa 0 mm - 14 W/m² -
1788045092 22.78° C 71% 1018.7 hPa 0 mm - 21 W/m² -
1788044792 23.33° C 72% 1019 hPa 0 mm - 25 W/m² -
1788044487 23.89° C 69% 1019.1 hPa 0 mm - 33 W/m² -
1788044186 24.44° C 72% 1019.2 hPa 0 mm - 31 W/m² -
1788043883 24.44° C 68% 1019 hPa 0 mm - 38 W/m² -
1788043577 25° C 65% 1019 hPa 0 mm - 52 W/m² -

* Rain latest hour (hover to see other rain measurements)
** Current wind speed in m/s (hover to see current wind gust speed)